Regional Weather Roundup
Issued by NWS Green Bay, WI

Home | Current Version | Previous Version | Graphics & Text | Print | Product List | Glossary Off
Versions: 1 2 3 4 5 6 7 8 9 10 11 12 13 14 15 16 17 18 19 20 21 22 23 24 25 26 27 28 29 30 31 32 33 34 35 36 37 38 39 40 41 42 43 44 45 46 47 48 49 50

704
ASUS43 KGRB 162311
RWRGRB

NORTH-CENTRAL AND NORTHEAST WISCONSIN REGIONAL WEATHER ROUNDUP
NATIONAL WEATHER SERVICE GREEN BAY WI
500 PM CST TUE JAN 16 2018

WIZ005-009-010>012-018-019-170000-
NORTH CENTRAL WISCONSIN

CITY           SKY/WX    TMP DP  RH WIND       PRES   REMARKS
IRONWOOD       FAIR      10   5  80 W8        30.45F WCI  -2
MANITOWISH WTR FAIR       7   7  99 CALM      30.40F
ARBOR VITAE    FAIR      11   9  89 CALM      30.41F
EAGLE RIVER    FLURRIES  16  11  79 W5        30.39F WCI   9
LAND O LAKES   FLURRIES  15  11  82 NW5       30.41S WCI   8
RHINELANDER    FAIR      12   7  80 W5        30.41F WCI   4
PHILLIPS       FAIR      16   7  69 CALM      30.44S
ANTIGO         CLOUDY    16   6  66 NW5       30.43S WCI   9
TOMAHAWK       FAIR      15   8  76 W3        30.43F
MERRILL        MOCLDY    19   9  65 W3        30.46S
$$

WIZ013-073-170000-
NORTHEAST WISCONSIN

CITY           SKY/WX    TMP DP  RH WIND       PRES   REMARKS
IRON MOUNTAIN  FAIR      14   6  70 NW8       30.41S WCI   3
MARINETTE      CLOUDY    14  11  87 CALM      30.47S
OCONTO         FAIR      14  12  90 W3        30.48R
$$

WIZ017-030-035>037-045-170000-
CENTRAL WISCONSIN

CITY           SKY/WX    TMP DP  RH WIND       PRES   REMARKS
MEDFORD        FAIR      15   8  73 W7        30.45S WCI   5
WAUSAU         CLOUDY    19   9  65 W3        30.44S
MOSINEE        MOCLDY    19  12  73 W10       30.48R WCI   8
MARSHFIELD     FAIR      13   7  77 W7        30.48R WCI   3
WISC RAPIDS    FAIR      17   8  67 NW8       30.51S WCI   7
STEVENS POINT  CLOUDY    17  11  77 W10       30.49R WCI   5
WAUPACA        CLOUDY    23  10  56 NW5       30.50R
SHAWANO        CLOUDY    23  12  62 NW3       30.48R
CLINTONVILLE   CLOUDY    21  10  63 NW5       30.48S
WAUTOMA        FAIR      15   8  73 W6        30.51R WCI   6
$$

WIZ038-039-048-051-170000-
FOX VALLEY

CITY           SKY/WX    TMP DP  RH WIND       PRES   REMARKS
NWS GREEN BAY  FAIR      17  10  74 SW3       30.48S
APPLETON       PTCLDY    18   9  68 NW6       30.46R WCI   9
OSHKOSH        MOCLDY    18  13  80 W3        30.48S
FOND DU LAC    FAIR      18   9  68 CALM      30.49R
$$

WIZ022-050-052-170000-
EAST CENTRAL WISCONSIN

CITY           SKY/WX    TMP DP  RH WIND       PRES   REMARKS
EPHRAIM        FLURRIES  15  10  79 W5        30.44S WCI   7
WASHINGTON ISL FAIR      10   6  84 CALM      30.45S
STURGEON BAY   FLURRIES  12   4  70 CALM      30.47S
MANITOWOC      FAIR      15   9  76 W3        30.50R
SHEBOYGAN      FAIR      16  10  77 W5        30.49R WCI   9
$$

LMZ563-521-522-541>543-170000-
LAKESHORE

STATION/POSITION TIME  TEMP    WIND        PRES    VSBY  WAVE
                       AIR SEA DIR/SP/G                  HT/PER
                 (UTC) (F)     (DEG/KT/KT) (MB)    (MI)  (FT/S)
SHEBOYGAN LKSHOR 2300   19     290/  7/  8 1033.6R
KEWAUNEE LKSHORE 2242   17     300/  3/  4 1031.2R
NORTHPORT PIER   2232   15      CALM  / 11 1031.2S
MENOMINEE LKSHOR 2242   14     180/  7/ 11 1031.3R
$$




USA.gov is the U.S. government's official web portal to all federal, state and local government web resources and services.